GW1828 Weather Reports


Display with metric or nautical units.
time (UTC)temp
F
wind
direction
speed
MPH
gust
MPH
rain 1hr
in
rain 24hr
in
rain mn
in
humidity
%
barometer
mb
20260504002210 51 240 0.0 4.0 0.00 0.00 0.00 83 1020.1
20260504001711 51 196 0.0 6.0 0.00 0.00 0.00 83 1020.1
20260504001515 52 196 2.0 6.0 0.00 0.00 0.00 84 1020.1
20260504001017 51 206 3.0 5.0 0.00 0.00 0.00 85 1020.1
20260504000211 51 306 0.0 3.0 0.00 0.00 0.00 85 1020.2
20260504000014 51 285 1.0 3.0 0.00 0.00 0.00 84 1020.2
20260503235208 51 0 0.0 0.0 0.00 0.00 0.00 83 1020.2
20260503234957 52 0 0.0 2.0 0.00 0.00 0.00 83 1020.3
20260503234208 52 0 0.0 2.0 0.00 0.00 0.00 84 1020.3
20260503234017 52 0 1.0 2.0 0.00 0.00 0.00 83 1020.3
20260503233500 52 0 0.0 4.0 0.00 0.00 0.00 83 1020.3
20260503232708 52 0 0.0 4.0 0.00 0.00 0.00 83 1020.4
20260503232514 52 0 3.0 4.0 0.00 0.00 0.00 82 1020.5
20260503231712 53 224 0.0 0.0 0.00 0.00 0.00 82 1020.4
20260503231208 53 224 0.0 6.0 0.00 0.00 0.00 83 1020.4
20260503230712 53 224 0.0 9.0 0.00 0.00 0.00 83 1020.4
20260503230516 53 209 2.0 9.0 0.00 0.00 0.00 83 1020.5
20260503225708 54 188 3.0 6.0 0.00 0.00 0.00 83 1020.5
20260503225208 54 207 5.0 7.0 0.00 0.00 0.00 83 1020.5
20260503224708 54 219 4.0 7.0 0.00 0.00 0.00 83 1020.5
20260503224207 54 213 3.0 9.0 0.00 0.00 0.00 83 1020.7
20260503223708 54 224 3.0 9.0 0.00 0.00 0.00 83 1020.6
20260503223513 54 206 4.0 7.0 0.00 0.00 0.00 83 1020.7
20260503222707 54 214 3.0 6.0 0.00 0.00 0.00 84 1020.8
20260503222458 54 235 4.0 7.0 0.00 0.00 0.00 83 1020.8
20260503221707 54 223 4.0 7.0 0.00 0.00 0.00 84 1020.7
20260503221207 54 248 4.0 9.0 0.00 0.00 0.00 83 1020.8
20260503221016 54 206 5.0 9.0 0.00 0.00 0.00 83 1020.7
20260503220206 54 204 4.0 11.0 0.00 0.00 0.00 83 1020.7
20260503215708 54 196 5.0 11.0 0.00 0.00 0.00 83 1020.6
20260503215517 54 199 6.0 11.0 0.00 0.00 0.00 83 1020.5
20260503214706 54 207 6.0 10.0 0.00 0.00 0.00 83 1020.5
20260503214207 54 217 4.0 10.0 0.00 0.00 0.00 83 1020.5
20260503213705 55 210 5.0 12.0 0.00 0.00 0.00 82 1020.5
20260503213206 55 235 6.0 13.0 0.00 0.00 0.00 82 1020.5
20260503213001 55 240 4.0 16.0 0.00 0.00 0.00 82 1020.5
20260503212206 55 254 9.0 16.0 0.00 0.00 0.00 83 1020.5
20260503211705 55 300 7.0 15.0 0.00 0.00 0.00 82 1020.5
20260503211516 55 276 8.0 14.0 0.00 0.00 0.00 82 1020.5
20260503210705 55 261 7.0 14.0 0.00 0.00 0.00 82 1020.5
20260503210206 55 262 7.0 14.0 0.00 0.00 0.00 81 1020.5
20260503210019 55 228 8.0 15.0 0.00 0.00 0.00 81 1020.5
20260503205205 55 241 8.0 15.0 0.00 0.00 0.00 80 1020.5
20260503204704 56 303 4.0 16.0 0.00 0.00 0.00 79 1020.5
20260503204205 56 275 8.0 16.0 0.00 0.00 0.00 79 1020.5
20260503203706 56 305 8.0 14.0 0.00 0.00 0.00 78 1020.5
20260503203205 56 226 6.0 16.0 0.00 0.00 0.00 77 1020.5
20260503202705 56 241 7.0 16.0 0.00 0.00 0.00 77 1020.4
20260503202206 56 276 8.0 16.0 0.00 0.00 0.00 76 1020.4
20260503201704 56 257 6.0 16.0 0.00 0.00 0.00 76 1020.4
20260503201204 56 237 4.0 9.0 0.00 0.00 0.00 74 1020.2
20260503200704 56 234 5.0 13.0 0.00 0.00 0.00 74 1020.2
20260503200501 57 219 6.0 13.0 0.00 0.00 0.00 73 1020.1
20260503195703 57 265 7.0 15.0 0.00 0.00 0.00 74 1020.1
20260503195311 57 247 6.0 13.0 0.00 0.00 0.00 73 1020.1
20260503195246 57 226 8.0 15.0 0.00 0.00 0.00 74 1020.1
20260503194206 57 251 8.0 13.0 0.00 0.00 0.00 73 1020.0
20260503193706 57 255 7.0 13.0 0.00 0.00 0.00 72 1020.1
20260503193204 57 247 6.0 13.0 0.00 0.00 0.00 71 1020.1
20260503192703 57 248 6.0 13.0 0.00 0.00 0.00 71 1020.1
20260503192203 57 250 8.0 13.0 0.00 0.00 0.00 71 1020.0
20260503191703 57 233 6.0 10.0 0.00 0.00 0.00 70 1019.9
20260503191455 58 243 6.0 10.0 0.00 0.00 0.00 70 1019.9
20260503191000 58 259 2.0 11.0 0.00 0.00 0.00 68 1019.8
20260503190457 58 217 4.0 11.0 0.00 0.00 0.00 69 1019.8
20260503185705 57 234 4.0 7.0 0.00 0.00 0.00 69 1019.8
20260503185450 58 266 4.0 12.0 0.00 0.00 0.00 68 1019.7
20260503184701 58 261 6.0 12.0 0.00 0.00 0.00 69 1019.7
20260503184202 58 228 6.0 11.0 0.00 0.00 0.00 69 1019.7
20260503183702 58 245 5.0 11.0 0.00 0.00 0.00 68 1019.5
20260503183202 58 233 6.0 13.0 0.00 0.00 0.00 68 1019.4
20260503182702 58 258 8.0 13.0 0.00 0.00 0.00 67 1019.4
20260503182201 58 223 6.0 14.0 0.00 0.00 0.00 66 1019.5
20260503181705 58 271 7.0 14.0 0.00 0.00 0.00 66 1019.4
20260503181611 59 275 4.0 11.0 0.00 0.00 0.00 65 1019.3
20260503181556 58 259 7.0 12.0 0.00 0.00 0.00 66 1019.4
20260503180203 59 262 6.0 14.0 0.00 0.00 0.00 65 1019.3
20260503175702 59 216 6.0 14.0 0.00 0.00 0.00 64 1019.2
20260503175455 59 257 6.0 13.0 0.00 0.00 0.00 64 1019.2
20260503174700 59 243 8.0 15.0 0.00 0.00 0.00 64 1019.1
20260503174201 59 244 7.0 15.0 0.00 0.00 0.00 63 1019.1
20260503173712 59 268 6.0 11.0 0.00 0.00 0.00 63 1019.0
20260503173200 60 238 4.0 15.0 0.00 0.00 0.00 63 1019.0
20260503172955 60 255 6.0 15.0 0.00 0.00 0.00 63 1019.0
20260503172200 60 283 5.0 15.0 0.00 0.00 0.00 63 1019.1
20260503171700 60 275 9.0 15.0 0.00 0.00 0.00 62 1019.0
20260503171456 60 259 9.0 15.0 0.00 0.00 0.00 62 1019.0
20260503170700 61 255 11.0 17.0 0.00 0.00 0.00 62 1019.0
20260503170200 61 248 11.0 19.0 0.00 0.00 0.00 63 1019.1
20260503160158 63 310 12.0 24.0 0.00 0.00 0.00 59 1019.2
20260503150657 65 321 15.0 21.0 0.00 0.00 0.00 53 1019.0
20260503150158 66 309 13.0 22.0 0.00 0.00 0.00 52 1019.0
20260503140157 68 329 14.0 20.0 0.00 0.00 0.00 44 1019.2
20260503131154 68 305 11.0 22.0 0.00 0.00 0.00 47 1019.7
20260503130654 68 306 10.0 22.0 0.00 0.00 0.00 45 1019.5
20260503130154 69 295 10.0 19.0 0.00 0.00 0.00 45 1019.5
20260503120154 70 324 4.0 10.0 0.00 0.00 0.00 34 1020.0
20260503110651 68 51 1.0 9.0 0.00 0.00 0.00 37 1020.2
20260503110151 68 39 5.0 9.0 0.00 0.00 0.00 37 1020.3
20260503100152 68 276 2.0 6.0 0.00 0.00 0.00 39 1020.7
20260503090445 65 252 5.0 11.0 0.00 0.00 0.00 42 1021.0
20260503081246 62 302 12.0 18.0 0.00 0.00 0.00 45 1021.1
20260503081231 62 281 11.0 18.0 0.00 0.00 0.00 44 1021.2
20260503080148 62 293 9.0 17.0 0.00 0.00 0.00 46 1021.2
20260503072647 61 190 1.0 6.0 0.00 0.00 0.00 51 1021.4
20260503072147 61 51 2.0 6.0 0.00 0.00 0.00 53 1021.4
20260503071647 60 188 0.0 4.0 0.00 0.00 0.00 54 1021.5
20260503071437 60 86 1.0 5.0 0.00 0.00 0.00 55 1021.5
20260503070646 59 80 1.0 5.0 0.00 0.00 0.00 57 1021.4
20260503070149 59 124 1.0 3.0 0.00 0.00 0.00 59 1021.4
20260503060138 51 323 0.0 2.0 0.00 0.00 0.00 62 1021.6
20260503054136 50 285 0.0 0.0 0.00 0.00 0.00 67 1021.5
20260503053635 49 285 0.0 0.0 0.00 0.00 0.00 69 1021.5
20260503053133 49 285 0.0 0.0 0.00 0.00 0.00 69 1021.5
20260503052634 49 285 0.0 1.0 0.00 0.00 0.00 71 1021.5
20260503052135 48 285 0.0 1.0 0.00 0.00 0.00 72 1021.5
20260503051631 48 285 0.0 0.0 0.00 0.00 0.00 74 1021.4
20260503051132 47 285 0.0 0.0 0.00 0.00 0.00 75 1021.4
20260503051050 45 285 0.0 0.0 0.00 0.00 0.00 76 1021.3
20260503050720 46 285 0.0 0.0 0.00 0.00 0.00 76 1021.3
20260503045635 44 285 0.0 0.0 0.00 0.00 0.00 77 1021.2
20260503045131 44 285 0.0 0.0 0.00 0.00 0.00 77 1021.2
20260503044631 43 285 0.0 0.0 0.00 0.00 0.00 75 1021.2
20260503044133 43 285 0.0 0.0 0.00 0.00 0.00 75 1021.2
20260503043632 43 285 0.0 0.0 0.00 0.00 0.00 75 1021.2
20260503043130 43 285 0.0 0.0 0.00 0.00 0.00 75 1021.3
20260503042631 43 285 0.0 0.0 0.00 0.00 0.00 75 1021.3
20260503042414 44 285 0.0 1.0 0.00 0.00 0.00 72 1021.1
20260503042322 43 285 0.0 1.0 0.00 0.00 0.00 74 1021.3
20260503041724 44 285 0.0 1.0 0.00 0.00 0.00 73 1021.2
20260503040631 44 285 0.0 1.0 0.00 0.00 0.00 71 1021.1
20260503040133 45 285 0.0 1.0 0.00 0.00 0.00 71 1021.1
20260503035631 45 285 0.0 1.0 0.00 0.00 0.00 70 1021.0
20260503035131 45 285 0.0 2.0 0.00 0.00 0.00 69 1021.0
20260503034631 46 285 0.0 2.0 0.00 0.00 0.00 69 1021.0
20260503034133 46 285 0.0 0.0 0.00 0.00 0.00 68 1021.0
20260503033631 46 285 0.0 0.0 0.00 0.00 0.00 68 1021.0
20260503033426 46 285 0.0 1.0 0.00 0.00 0.00 68 1021.0
20260503032632 46 285 0.0 1.0 0.00 0.00 0.00 68 1021.0
20260503032135 46 285 0.0 1.0 0.00 0.00 0.00 67 1021.0
20260503031631 46 285 0.0 2.0 0.00 0.00 0.00 67 1021.0
20260503031131 46 285 0.0 2.0 0.00 0.00 0.00 67 1021.0
20260503030631 46 285 2.0 2.0 0.00 0.00 0.00 68 1021.0
20260503030131 46 285 0.0 1.0 0.00 0.00 0.00 68 1021.1
20260503025631 46 285 0.0 0.0 0.00 0.00 0.00 68 1021.1
20260503025131 46 285 0.0 0.0 0.00 0.00 0.00 68 1021.0
20260503024631 46 285 0.0 0.0 0.00 0.00 0.00 68 1021.1
20260503024134 45 285 0.0 0.0 0.00 0.00 0.00 69 1021.1
20260503023632 45 285 0.0 0.0 0.00 0.00 0.00 69 1021.1
20260503023132 45 285 0.0 1.0 0.00 0.00 0.00 69 1021.2
20260503022630 45 285 0.0 1.0 0.00 0.00 0.00 70 1021.2
20260503022131 45 285 0.0 0.0 0.00 0.00 0.00 68 1021.2
20260503021928 45 285 0.0 0.0 0.00 0.00 0.00 67 1021.2
20260503021132 46 285 0.0 2.0 0.00 0.00 0.00 66 1021.3
20260503020632 46 285 1.0 2.0 0.00 0.00 0.00 66 1021.3
20260503020131 46 285 0.0 3.0 0.00 0.00 0.00 66 1021.3
20260503015631 46 285 0.0 3.0 0.00 0.00 0.00 66 1021.4
20260503015131 47 292 0.0 3.0 0.00 0.00 0.00 65 1021.3
20260503014631 47 292 0.0 3.0 0.00 0.00 0.00 64 1021.4
20260503014132 47 234 0.0 0.0 0.00 0.00 0.00 63 1021.4
20260503013631 47 234 0.0 2.0 0.00 0.00 0.00 64 1021.6
20260503013424 47 234 0.0 2.0 0.00 0.00 0.00 65 1021.5
20260503012632 47 234 1.0 3.0 0.00 0.00 0.00 65 1021.6
20260503012131 47 234 2.0 3.0 0.00 0.00 0.00 66 1021.6
20260503011635 46 171 0.0 0.0 0.00 0.00 0.00 65 1021.6
20260503011131 46 171 0.0 0.0 0.00 0.00 0.00 65 1021.6
20260503010927 47 171 0.0 0.0 0.00 0.00 0.00 64 1021.6
20260503010131 47 276 0.0 0.0 0.00 0.00 0.00 64 1021.6
20260503005927 47 276 0.0 0.0 0.00 0.00 0.00 64 1021.6
20260503005131 47 276 0.0 0.0 0.00 0.00 0.00 64 1021.7
20260503004929 47 276 0.0 0.0 0.00 0.00 0.00 64 1021.7
20260503004130 47 276 0.0 0.0 0.00 0.00 0.00 64 1021.7
20260503003926 47 276 0.0 0.0 0.00 0.00 0.00 63 1021.8
20260503003136 47 276 0.0 0.0 0.00 0.00 0.00 63 1021.8
20260503002632 47 276 0.0 1.0 0.00 0.00 0.00 63 1022.0